Location: Fours
(44.3167°N, 6.7000°E)
Time: 20:51:28
(UTC+00:00)

Cosmos 2227 - Pass Details

Date: 31 May 2022
Orbit: 832 x 863 km, 71.0° (Epoch: 03 July)

Event Time Altitude Azimuth Distance (km) Brightness Sun altitude
Rises 19:50:45 0° 337° (NNW) 3,446 8.7 -6.8°
Reaches altitude 10° 19:53:15 10° 341° (NNW) 2,508 7.7 -7.1°
Maximum altitude 19:58:58 60° 61° (ENE) 987 4.5 -7.9°
Enters shadow 20:04:35 10° 141° (SE) 2,478 6.0 -8.6°
